Location: Camerons Lookout
(40.9833°S, 175.9333°E)
Time: 08:02:26
(UTC+00:00)

Atlas Centaur 2 - Pass Details

Date: 14 January 2026
Orbit: 456 x 1249 km, 30.4° (Epoch: 15 February)

Event Time Altitude Azimuth Distance (km) Brightness Sun altitude
Rises 08:55:23 0° 288° (WNW) 2,984 5.5 -11.0°
Reaches altitude 10° 08:58:37 10° 307° (NW) 1,922 4.2 -11.4°
Maximum altitude 09:01:26 17° 347° (NNW) 1,424 3.1 -11.8°
Enters shadow 09:02:58 14° 14° (NNE) 1,515 3.1 -12.0°
